| time (UTC) | temp F | wind direction | speed knots | gust knots | rain 1hr in | rain 24hr in | rain mn in | humidity % | barometer mb |
| 20260508033357 | 57 | 2.6 | 0.0 | 0.00 | 0.00 | 0.00 | 100 | 1015.0 | |
| 20260508031854 | 57 | 2.6 | 0.0 | 0.00 | 0.00 | 0.00 | 100 | 1015.0 | |
| 20260508030358 | 57 | 2.6 | 0.0 | 0.00 | 0.00 | 0.00 | 100 | 1015.0 | |
| 20260508024857 | 0 | 0.0 | 0.0 | 0.00 | 0.00 | 0.00 | |||
| 20260508023358 | 0 | 0.0 | 0.0 | 0.00 | 0.00 | 0.00 | |||
| 20260508021858 | 0 | 0.0 | 0.0 | 0.00 | 0.00 | 0.00 | |||
| 20260508020357 | 0 | 0.0 | 0.0 | 0.00 | 0.00 | 0.00 | |||
| 20260508014854 | 0 | 0.0 | 0.0 | 0.00 | 0.00 | 0.00 | |||
| 20260508013357 | 0 | 0.0 | 0.0 | 0.00 | 0.00 | 0.00 | |||
| 20260508011857 | 0 | 0.0 | 0.0 | 0.00 | 0.00 | 0.00 | |||
| 20260508010356 | 0 | 0.0 | 0.0 | 0.00 | 0.00 | 0.00 | |||
| 20260508004857 | 0 | 0.0 | 0.0 | 0.00 | 0.00 | 0.00 | |||
| 20260508003357 | 0 | 0.0 | 0.0 | 0.00 | 0.00 | 0.00 | |||
| 20260508001853 | 0 | 0.0 | 0.0 | 0.00 | 0.00 | 0.00 | |||
| 20260508000357 | 0 | 0.0 | 0.0 | 0.00 | 0.00 | 0.00 | |||
| 20260507234854 | 0 | 0.0 | 0.0 | 0.00 | 0.00 | 0.00 | |||
| 20260507233356 | 0 | 0.0 | 0.0 | 0.00 | 0.00 | 0.00 | |||
| 20260507231853 | 0 | 0.0 | 0.0 | 0.00 | 0.00 | 0.00 | |||
| 20260507230356 | 0 | 0.0 | 0.0 | 0.00 | 0.00 | 0.00 | |||
| 20260507224857 | 0 | 0.0 | 0.0 | 0.00 | 0.00 | 0.00 | |||
| 20260507223519 | 0 | 0.0 | 0.0 | 0.00 | 0.00 | 0.00 | |||
| 20260507221854 | 0 | 0.0 | 0.0 | 0.00 | 0.00 | 0.00 | |||
| 20260507220356 | 0 | 0.0 | 0.0 | 0.00 | 0.00 | 0.00 | |||
| 20260507214856 | 59 | 310 | 2.6 | 0.0 | 0.00 | 0.00 | 0.00 | 100 | 1015.0 |
| 20260507213358 | 59 | 310 | 2.6 | 0.0 | 0.00 | 0.00 | 0.00 | 100 | 1015.0 |
| 20260507211857 | 59 | 310 | 2.6 | 0.0 | 0.00 | 0.00 | 0.00 | 100 | 1015.0 |
| 20260507210357 | 59 | 310 | 2.6 | 0.0 | 0.00 | 0.00 | 0.00 | 100 | 1015.0 |
| 20260507204857 | 59 | 310 | 2.6 | 0.0 | 0.00 | 0.00 | 0.00 | 100 | 1015.0 |
| 20260507203357 | 59 | 330 | 2.6 | 0.0 | 0.00 | 0.00 | 0.00 | 100 | 1015.0 |
| 20260507201854 | 59 | 330 | 2.6 | 0.0 | 0.00 | 0.00 | 0.00 | 100 | 1015.0 |
| 20260507200357 | 59 | 330 | 2.6 | 0.0 | 0.00 | 0.00 | 0.00 | 100 | 1015.0 |
| 20260507194902 | 61 | 320 | 5.2 | 0.0 | 0.00 | 0.00 | 0.00 | 94 | 1015.0 |
| 20260507193356 | 61 | 320 | 5.2 | 0.0 | 0.00 | 0.00 | 0.00 | 94 | 1015.0 |
| 20260507191853 | 61 | 320 | 5.2 | 0.0 | 0.00 | 0.00 | 0.00 | 94 | 1015.0 |
| 20260507190358 | 61 | 320 | 5.2 | 0.0 | 0.00 | 0.00 | 0.00 | 94 | 1015.0 |
| 20260507184859 | 63 | 360 | 5.2 | 0.0 | 0.00 | 0.00 | 0.00 | 77 | 1014.0 |
| 20260507183356 | 63 | 360 | 5.2 | 0.0 | 0.00 | 0.00 | 0.00 | 77 | 1014.0 |
| 20260507181857 | 63 | 360 | 5.2 | 0.0 | 0.00 | 0.00 | 0.00 | 77 | 1014.0 |
| 20260507180356 | 63 | 360 | 5.2 | 0.0 | 0.00 | 0.00 | 0.00 | 77 | 1014.0 |
| 20260507174856 | 66 | 340 | 7.8 | 0.0 | 0.00 | 0.00 | 0.00 | 68 | 1014.0 |
| 20260507173357 | 66 | 340 | 7.8 | 0.0 | 0.00 | 0.00 | 0.00 | 68 | 1014.0 |
| 20260507171857 | 66 | 340 | 7.8 | 0.0 | 0.00 | 0.00 | 0.00 | 68 | 1014.0 |
| 20260507170356 | 66 | 340 | 7.8 | 0.0 | 0.00 | 0.00 | 0.00 | 68 | 1014.0 |
| 20260507164857 | 68 | 340 | 8.7 | 0.0 | 0.00 | 0.00 | 0.00 | 69 | 1013.0 |
| 20260507163357 | 68 | 340 | 8.7 | 0.0 | 0.00 | 0.00 | 0.00 | 69 | 1013.0 |
| 20260507161856 | 68 | 340 | 8.7 | 0.0 | 0.00 | 0.00 | 0.00 | 69 | 1013.0 |
| 20260507160356 | 0 | 0.0 | 0.0 | 0.00 | 0.00 | 0.00 | |||
| 20260507154857 | 68 | 330 | 4.3 | 0.0 | 0.00 | 0.00 | 0.00 | 69 | 1013.0 |
| 20260507153357 | 68 | 330 | 4.3 | 0.0 | 0.00 | 0.00 | 0.00 | 69 | 1013.0 |
| 20260507151857 | 68 | 330 | 4.3 | 0.0 | 0.00 | 0.00 | 0.00 | 69 | 1013.0 |
| 20260507150356 | 68 | 330 | 4.3 | 0.0 | 0.00 | 0.00 | 0.00 | 69 | 1013.0 |
| 20260507144856 | 68 | 210 | 12.2 | 0.0 | 0.00 | 0.00 | 0.00 | 60 | 1014.0 |
| 20260507143358 | 68 | 210 | 12.2 | 0.0 | 0.00 | 0.00 | 0.00 | 60 | 1014.0 |
| 20260507141857 | 68 | 210 | 12.2 | 0.0 | 0.00 | 0.00 | 0.00 | 60 | 1014.0 |
| 20260507140356 | 68 | 210 | 12.2 | 0.0 | 0.00 | 0.00 | 0.00 | 60 | 1014.0 |
| 20260507134857 | 73 | 230 | 13.0 | 0.0 | 0.00 | 0.00 | 0.00 | 44 | 1013.0 |
| 20260507133356 | 73 | 230 | 13.0 | 0.0 | 0.00 | 0.00 | 0.00 | 44 | 1013.0 |
| 20260507131853 | 73 | 230 | 13.0 | 0.0 | 0.00 | 0.00 | 0.00 | 44 | 1013.0 |
| 20260507130356 | 73 | 230 | 13.0 | 0.0 | 0.00 | 0.00 | 0.00 | 44 | 1013.0 |
| 20260507124853 | 77 | 190 | 7.8 | 0.0 | 0.00 | 0.00 | 0.00 | 34 | 1014.0 |
| 20260507123435 | 77 | 190 | 7.8 | 0.0 | 0.00 | 0.00 | 0.00 | 34 | 1014.0 |
| 20260507121856 | 77 | 190 | 7.8 | 0.0 | 0.00 | 0.00 | 0.00 | 34 | 1014.0 |
| 20260507120357 | 77 | 190 | 7.8 | 0.0 | 0.00 | 0.00 | 0.00 | 34 | 1014.0 |
| 20260507114857 | 75 | 2.6 | 0.0 | 0.00 | 0.00 | 0.00 | 36 | 1014.0 | |
| 20260507113423 | 0 | 0.0 | 0.0 | 0.00 | 0.00 | 0.00 | |||
| 20260507111856 | 75 | 2.6 | 0.0 | 0.00 | 0.00 | 0.00 | 36 | 1014.0 | |
| 20260507110356 | 0 | 0.0 | 0.0 | 0.00 | 0.00 | 0.00 | |||
| 20260507104856 | 73 | 2.6 | 0.0 | 0.00 | 0.00 | 0.00 | 47 | 1015.0 | |
| 20260507103356 | 73 | 2.6 | 0.0 | 0.00 | 0.00 | 0.00 | 47 | 1015.0 | |
| 20260507101856 | 73 | 2.6 | 0.0 | 0.00 | 0.00 | 0.00 | 47 | 1015.0 | |
| 20260507100357 | 73 | 2.6 | 0.0 | 0.00 | 0.00 | 0.00 | 47 | 1015.0 | |
| 20260507094857 | 0 | 0.0 | 0.0 | 0.00 | 0.00 | 0.00 | |||
| 20260507093357 | 0 | 0.0 | 0.0 | 0.00 | 0.00 | 0.00 | |||
| 20260507091858 | 0 | 0.0 | 0.0 | 0.00 | 0.00 | 0.00 | |||
| 20260507090357 | 0 | 0.0 | 0.0 | 0.00 | 0.00 | 0.00 | |||
| 20260507084857 | 68 | 160 | 2.6 | 0.0 | 0.00 | 0.00 | 0.00 | 53 | 1015.0 |
| 20260507083357 | 68 | 160 | 2.6 | 0.0 | 0.00 | 0.00 | 0.00 | 53 | 1015.0 |
| 20260507081857 | 68 | 160 | 2.6 | 0.0 | 0.00 | 0.00 | 0.00 | 53 | 1015.0 |
| 20260507080357 | 68 | 160 | 2.6 | 0.0 | 0.00 | 0.00 | 0.00 | 53 | 1015.0 |
| 20260507074857 | 66 | 180 | 2.6 | 0.0 | 0.00 | 0.00 | 0.00 | 56 | 1015.0 |
| 20260507073356 | 66 | 180 | 2.6 | 0.0 | 0.00 | 0.00 | 0.00 | 56 | 1015.0 |
| 20260507071857 | 66 | 180 | 2.6 | 0.0 | 0.00 | 0.00 | 0.00 | 56 | 1015.0 |
| 20260507070356 | 66 | 180 | 2.6 | 0.0 | 0.00 | 0.00 | 0.00 | 56 | 1015.0 |
| 20260507064856 | 59 | 180 | 1.7 | 0.0 | 0.00 | 0.00 | 0.00 | 68 | 1015.0 |
| 20260507063357 | 59 | 180 | 1.7 | 0.0 | 0.00 | 0.00 | 0.00 | 68 | 1015.0 |
| 20260507061906 | 59 | 180 | 1.7 | 0.0 | 0.00 | 0.00 | 0.00 | 68 | 1015.0 |
| 20260507060357 | 59 | 180 | 1.7 | 0.0 | 0.00 | 0.00 | 0.00 | 68 | 1015.0 |
| 20260507054856 | 57 | 190 | 1.7 | 0.0 | 0.00 | 0.00 | 0.00 | 67 | 1014.0 |
| 20260507053404 | 57 | 190 | 1.7 | 0.0 | 0.00 | 0.00 | 0.00 | 67 | 1014.0 |
| 20260507051857 | 57 | 190 | 1.7 | 0.0 | 0.00 | 0.00 | 0.00 | 67 | 1014.0 |
| 20260507050356 | 0 | 0.0 | 0.0 | 0.00 | 0.00 | 0.00 | |||
| 20260507044850 | 48 | 350 | 1.7 | 0.0 | 0.00 | 0.00 | 0.00 | 87 | 1014.0 |
| 20260507043356 | 48 | 350 | 1.7 | 0.0 | 0.00 | 0.00 | 0.00 | 87 | 1014.0 |
| 20260507041857 | 48 | 350 | 1.7 | 0.0 | 0.00 | 0.00 | 0.00 | 87 | 1014.0 |
| 20260507040356 | 48 | 350 | 1.7 | 0.0 | 0.00 | 0.00 | 0.00 | 87 | 1014.0 |
| 20260507034853 | 52 | 70 | 1.7 | 0.0 | 0.00 | 0.00 | 0.00 | 72 | 1014.0 |